TimeCST,TemperatureF,Dew PointF,Humidity,Sea Level PressureIn,VisibilityMPH,Wind Direction,Wind SpeedMPH,Gust SpeedMPH,PrecipitationIn,Events,Conditions,WindDirDegrees,DateUTC
12:12 AM,35.6,19.4,52,29.68,10.0,South,21.9,28.8,N/A,,Clear,190,2011-11-18 06:12:00
12:32 AM,37.4,19.4,48,29.67,10.0,South,20.7,28.8,N/A,,Clear,180,2011-11-18 06:32:00
12:53 AM,37.4,21.2,52,29.66,10.0,South,23.0,29.9,N/A,,Clear,190,2011-11-18 06:53:00
1:12 AM,37.4,21.2,52,29.65,10.0,South,23.0,27.6,N/A,,Clear,190,2011-11-18 07:12:00
1:32 AM,37.4,21.2,52,29.65,10.0,South,19.6,25.3,N/A,,Clear,190,2011-11-18 07:32:00
1:53 AM,37.4,23.0,56,29.64,10.0,South,20.7,28.8,N/A,,Clear,190,2011-11-18 07:53:00
2:12 AM,37.4,23.0,56,29.64,10.0,South,19.6,31.1,N/A,,Clear,190,2011-11-18 08:12:00
2:32 AM,37.4,23.0,56,29.64,10.0,South,21.9,29.9,N/A,,Clear,190,2011-11-18 08:32:00
2:53 AM,37.4,23.0,56,29.63,10.0,South,23.0,29.9,N/A,,Clear,190,2011-11-18 08:53:00
3:13 AM,37.4,23.0,56,29.63,10.0,SSW,21.9,29.9,N/A,,Clear,200,2011-11-18 09:13:00
3:24 AM,35.6,23.0,60,29.63,10.0,SSW,24.2,29.9,N/A,,Clear,200,2011-11-18 09:24:00
4:12 AM,35.6,23.0,60,29.61,10.0,South,19.6,26.5,N/A,,Clear,190,2011-11-18 10:12:00
4:33 AM,35.6,23.0,60,29.60,10.0,SSW,19.6,28.8,N/A,,Clear,200,2011-11-18 10:33:00
4:52 AM,35.6,23.0,60,29.61,10.0,SSW,18.4,24.2,N/A,,Clear,200,2011-11-18 10:52:00
5:12 AM,35.6,23.0,60,29.62,10.0,SSW,12.7,-,N/A,,Clear,210,2011-11-18 11:12:00
5:33 AM,33.8,24.8,70,29.62,10.0,SSW,13.8,-,N/A,,Clear,200,2011-11-18 11:33:00
6:12 AM,33.8,24.8,70,29.62,10.0,SSW,11.5,-,N/A,,Clear,200,2011-11-18 12:12:00
6:33 AM,33.8,24.8,70,29.62,10.0,SSW,10.4,-,N/A,,Clear,200,2011-11-18 12:33:00
6:52 AM,32.0,24.8,75,29.61,10.0,SSW,11.5,-,N/A,,Clear,200,2011-11-18 12:52:00
7:33 AM,32.0,24.8,75,29.60,10.0,South,16.1,-,N/A,,Clear,190,2011-11-18 13:33:00
7:52 AM,33.8,24.8,70,29.60,10.0,South,16.1,19.6,N/A,,Clear,190,2011-11-18 13:52:00
8:12 AM,33.8,24.8,70,29.60,10.0,SSW,15.0,-,N/A,,Clear,200,2011-11-18 14:12:00
8:33 AM,33.8,24.8,70,29.60,10.0,SSW,16.1,21.9,N/A,,Clear,200,2011-11-18 14:33:00
8:52 AM,35.6,24.8,65,29.60,10.0,SSW,15.0,21.9,N/A,,Clear,200,2011-11-18 14:52:00
9:33 AM,37.4,26.6,65,29.59,10.0,SSW,21.9,25.3,N/A,,Clear,200,2011-11-18 15:33:00
10:12 AM,39.2,26.6,61,29.59,10.0,SSW,19.6,25.3,N/A,,Clear,210,2011-11-18 16:12:00
10:33 AM,42.8,26.6,53,29.58,10.0,South,18.4,-,N/A,,Clear,190,2011-11-18 16:33:00
10:52 AM,42.8,26.6,53,29.60,10.0,SSW,18.4,25.3,N/A,,Clear,210,2011-11-18 16:52:00
11:12 AM,42.8,26.6,53,29.58,10.0,SSW,18.4,25.3,N/A,,Clear,200,2011-11-18 17:12:00
11:33 AM,44.6,26.6,49,29.57,10.0,SSW,17.3,25.3,N/A,,Clear,200,2011-11-18 17:33:00
11:52 AM,44.6,26.6,49,29.56,10.0,SSW,18.4,-,N/A,,Clear,210,2011-11-18 17:52:00
12:13 PM,46.4,26.6,46,29.56,10.0,SSW,16.1,23.0,N/A,,Clear,210,2011-11-18 18:13:00
12:32 PM,46.4,26.6,46,29.56,10.0,SSW,12.7,-,N/A,,Clear,210,2011-11-18 18:32:00
12:52 PM,48.2,26.6,43,29.58,10.0,WSW,17.3,-,N/A,,Clear,250,2011-11-18 18:52:00
1:33 PM,51.8,26.6,38,29.55,10.0,SSW,11.5,-,N/A,,Clear,210,2011-11-18 19:33:00
1:52 PM,50.0,26.6,40,29.57,10.0,SW,15.0,19.6,N/A,,Clear,220,2011-11-18 19:52:00
2:13 PM,51.8,26.6,38,29.55,10.0,SSW,8.1,16.1,N/A,,Clear,210,2011-11-18 20:13:00
2:32 PM,48.2,26.6,43,29.58,10.0,SW,11.5,-,N/A,,Clear,230,2011-11-18 20:32:00
2:52 PM,51.8,26.6,38,29.59,10.0,SSW,12.7,-,N/A,,Scattered Clouds,200,2011-11-18 20:52:00
3:13 PM,50.0,26.6,40,29.59,10.0,WSW,12.7,-,N/A,,Scattered Clouds,240,2011-11-18 21:13:00
3:32 PM,50.0,26.6,40,29.58,10.0,SW,9.2,-,N/A,,Scattered Clouds,230,2011-11-18 21:32:00
3:52 PM,50.0,26.6,40,29.58,10.0,SW,9.2,-,N/A,,Scattered Clouds,230,2011-11-18 21:52:00
4:13 PM,48.2,26.6,43,29.59,10.0,SW,6.9,-,N/A,,Clear,220,2011-11-18 22:13:00
4:32 PM,46.4,26.6,46,29.61,10.0,SW,6.9,-,N/A,,Clear,230,2011-11-18 22:32:00
4:52 PM,46.4,26.6,46,29.61,10.0,SSW,5.8,-,N/A,,Scattered Clouds,200,2011-11-18 22:52:00
5:13 PM,44.6,26.6,49,29.62,10.0,SW,4.6,-,N/A,,Mostly Cloudy,230,2011-11-18 23:13:00
6:13 PM,39.2,23.0,52,29.66,10.0,NW,16.1,20.7,N/A,,Clear,320,2011-11-19 00:13:00
6:32 PM,37.4,21.2,52,29.66,10.0,NW,13.8,-,N/A,,Scattered Clouds,320,2011-11-19 00:32:00
6:53 PM,35.6,21.2,56,29.66,10.0,NNW,10.4,-,N/A,,Clear,330,2011-11-19 00:53:00
7:13 PM,33.8,21.2,60,29.67,10.0,NW,11.5,-,N/A,,Clear,320,2011-11-19 01:13:00
7:53 PM,33.8,21.2,60,29.67,10.0,NNW,5.8,-,N/A,,Clear,330,2011-11-19 01:53:00
8:13 PM,32.0,21.2,64,29.68,10.0,NW,4.6,-,N/A,,Clear,320,2011-11-19 02:13:00
8:32 PM,30.2,21.2,69,29.67,10.0,NNW,3.5,-,N/A,,Clear,330,2011-11-19 02:32:00
8:53 PM,30.2,21.2,69,29.68,10.0,NNW,5.8,-,N/A,,Clear,330,2011-11-19 02:53:00
9:12 PM,30.2,21.2,69,29.68,10.0,NNW,3.5,-,N/A,,Clear,330,2011-11-19 03:12:00
9:53 PM,30.2,21.2,69,29.69,10.0,Calm,Calm,-,N/A,,Clear,0,2011-11-19 03:53:00
10:12 PM,28.4,21.2,74,29.70,10.0,NW,5.8,-,N/A,,Clear,320,2011-11-19 04:12:00
10:32 PM,28.4,21.2,74,29.70,10.0,NNW,8.1,-,N/A,,Clear,340,2011-11-19 04:32:00
10:53 PM,30.2,21.2,69,29.73,10.0,NW,11.5,16.1,N/A,,Clear,320,2011-11-19 04:53:00
11:32 PM,28.4,21.2,74,29.73,10.0,NNW,15.0,-,N/A,,Clear,340,2011-11-19 05:32:00
11:53 PM,28.4,23.0,80,29.73,10.0,NNW,17.3,21.9,N/A,,Scattered Clouds,340,2011-11-19 05:53:00